Location: Poughquag
(41.6090°N, 73.6820°W)
Time: 02:24:31
(UTC-04:00)

Vanguard 2 Rocket - Pass Details

Date: 07 June 2020
Orbit: 556 x 3324 km, 32.9° (Epoch: 06 July)

Event Time Altitude Azimuth Distance (km) Brightness Sun altitude
Rises 13:12:06 0° 222° (SW) 2,851 9.7 70.8°
Reaches altitude 10° 13:14:29 10° 206° (SSW) 2,100 9.2 70.7°
Maximum altitude 13:18:15 23° 153° (SSE) 1,688 8.9 70.5°
Drops below altitude 10° 13:23:25 10° 103° (ESE) 2,980 9.7 70.2°
Sets 13:27:34 0° 91° (E) 4,433 10.3 69.9°
